• In Belarus
  • List of Countries
  • For 7 days
  • Water Temperature
  • Satellite Maps
  • Weather Map
  • Weather Widgets
  • user-avatar
    Login

    Hourly Weather Nashavar

    Today, 19 December, Tuesday

    Time Temperature Precipitation Wind Pressure Humidity
    00:00 +16°C° 0 mm 3 mps 738 mmHg 25%
    01:00 +16°C° 0 mm 3 mps 737 mmHg 26%
    02:00 +16°C° 0 mm 3 mps 737 mmHg 26%
    03:00 +14°C° 0 mm 3 mps 737 mmHg 26%
    04:00 +14°C° 0 mm 3 mps 737 mmHg 26%
    05:00 +14°C° 0 mm 3 mps 737 mmHg 26%
    06:00 +14°C° 0 mm 3 mps 737 mmHg 26%
    07:00 +14°C° 0 mm 3 mps 737 mmHg 26%
    08:00 +14°C° 0 mm 3 mps 737 mmHg 25%
    09:00 +17°C° 0 mm 3 mps 737 mmHg 22%
    10:00 +19°C° 0 mm 3 mps 737 mmHg 19%
    11:00 +21°C° 0 mm 3 mps 738 mmHg 16%
    12:00 +22°C° 0 mm 3 mps 737 mmHg 15%
    13:00 +24°C° 0 mm 3 mps 737 mmHg 14%
    14:00 +25°C° 0 mm 3 mps 736 mmHg 13%
    15:00 +22°C° 0 mm 3 mps 736 mmHg 15%
    16:00 +21°C° 0 mm 3 mps 736 mmHg 17%
    17:00 +20°C° 0 mm 3 mps 736 mmHg 18%
    18:00 +19°C° 0 mm 3 mps 736 mmHg 19%
    19:00 +19°C° 0 mm 3 mps 737 mmHg 19%
    20:00 +18°C° 0 mm 3 mps 737 mmHg 19%
    21:00 +18°C° 0 mm 3 mps 737 mmHg 19%
    22:00 +18°C° 0 mm 3 mps 737 mmHg 20%
    23:00 +18°C° 0 mm 3 mps 737 mmHg 20%

    Tomorrow, 20 December, Wednesday

    Time Temperature Precipitation Wind Pressure Humidity
    00:00 +18°C° 0 mm 3 mps 737 mmHg 20%
    01:00 +17°C° 0 mm 3 mps 737 mmHg 20%
    02:00 +17°C° 0 mm 3 mps 737 mmHg 21%
    03:00 +17°C° 0 mm 3 mps 737 mmHg 21%
    04:00 +17°C° 0 mm 3 mps 737 mmHg 21%
    05:00 +16°C° 0 mm 3 mps 737 mmHg 21%
    06:00 +16°C° 0 mm 3 mps 737 mmHg 21%
    07:00 +16°C° 0 mm 3 mps 738 mmHg 22%
    08:00 +16°C° 0 mm 3 mps 738 mmHg 22%
    09:00 +18°C° 0 mm 3 mps 738 mmHg 20%
    10:00 +20°C° 0 mm 4 mps 738 mmHg 18%
    11:00 +22°C° 0 mm 4 mps 739 mmHg 15%
    12:00 +22°C° 0 mm 4 mps 738 mmHg 15%
    13:00 +23°C° 0 mm 4 mps 738 mmHg 15%
    14:00 +25°C° 0 mm 4 mps 737 mmHg 15%
    15:00 +23°C° 0 mm 4 mps 737 mmHg 17%
    16:00 +22°C° 0 mm 3 mps 737 mmHg 19%
    17:00 +20°C° 0 mm 3 mps 736 mmHg 20%
    18:00 +20°C° 0 mm 3 mps 737 mmHg 21%
    19:00 +19°C° 0 mm 3 mps 737 mmHg 21%
    20:00 +18°C° 0 mm 3 mps 737 mmHg 22%
    21:00 +18°C° 0 mm 3 mps 737 mmHg 23%
    22:00 +17°C° 0 mm 3 mps 737 mmHg 23%
    23:00 +17°C° 0 mm 3 mps 737 mmHg 24%

    Day after tomorrow, 21 December, Thursday

    Time Temperature Precipitation Wind Pressure Humidity
    00:00 +16°C° 0 mm 3 mps 737 mmHg 25%
    01:00 +16°C° 0 mm 3 mps 737 mmHg 25%
    02:00 +16°C° 0 mm 3 mps 737 mmHg 26%
    03:00 +14°C° 0 mm 3 mps 736 mmHg 27%
    04:00 +14°C° 0 mm 3 mps 736 mmHg 27%
    05:00 +14°C° 0 mm 3 mps 736 mmHg 28%
    06:00 +14°C° 0 mm 3 mps 736 mmHg 29%
    07:00 +14°C° 0 mm 3 mps 737 mmHg 29%
    08:00 +14°C° 0 mm 3 mps 737 mmHg 30%
    09:00 +17°C° 0 mm 3 mps 737 mmHg 27%
    10:00 +18°C° 0 mm 3 mps 738 mmHg 24%
    11:00 +20°C° 0 mm 4 mps 738 mmHg 21%
    12:00 +21°C° 0 mm 4 mps 737 mmHg 21%
    13:00 +22°C° 0 mm 4 mps 737 mmHg 20%
    14:00 +22°C° 0 mm 4 mps 736 mmHg 19%
    15:00 +21°C° 0 mm 3 mps 736 mmHg 20%
    16:00 +20°C° 0 mm 3 mps 736 mmHg 22%
    17:00 +19°C° 0 mm 3 mps 736 mmHg 23%
    18:00 +19°C° 0 mm 3 mps 736 mmHg 24%
    19:00 +18°C° 0 mm 3 mps 737 mmHg 24%
    20:00 +17°C° 0 mm 3 mps 737 mmHg 24%
    21:00 +17°C° 0 mm 3 mps 737 mmHg 24%
    22:00 +16°C° 0 mm 3 mps 737 mmHg 24%
    23:00 +16°C° 0 mm 3 mps 737 mmHg 24%

    22 December, Friday

    Time Temperature Precipitation Wind Pressure Humidity
    00:00 +14°C° 0 mm 3 mps 737 mmHg 25%
    01:00 +14°C° 0 mm 3 mps 737 mmHg 25%
    02:00 +14°C° 0 mm 3 mps 737 mmHg 25%
    03:00 +14°C° 0 mm 3 mps 736 mmHg 26%
    04:00 +13°C° 0 mm 3 mps 736 mmHg 26%
    05:00 +13°C° 0 mm 3 mps 736 mmHg 27%
    06:00 +13°C° 0 mm 3 mps 736 mmHg 27%
    07:00 +13°C° 0 mm 3 mps 736 mmHg 28%
    08:00 +13°C° 0 mm 3 mps 737 mmHg 28%
    09:00 +16°C° 0 mm 3 mps 737 mmHg 24%
    10:00 +18°C° 0 mm 3 mps 737 mmHg 21%
    11:00 +20°C° 0 mm 3 mps 736 mmHg 17%
    12:00 +21°C° 0 mm 3 mps 736 mmHg 16%
    13:00 +22°C° 0 mm 3 mps 735 mmHg 15%
    14:00 +22°C° 0 mm 3 mps 735 mmHg 14%
    15:00 +21°C° 0 mm 3 mps 734 mmHg 15%
    16:00 +20°C° 0 mm 2 mps 734 mmHg 17%
    17:00 +19°C° 0 mm 2 mps 734 mmHg 18%
    18:00 +18°C° 0 mm 2 mps 734 mmHg 18%
    19:00 +17°C° 0 mm 2 mps 735 mmHg 18%
    20:00 +17°C° 0 mm 3 mps 735 mmHg 18%
    21:00 +16°C° 0 mm 2 mps 735 mmHg 18%
    22:00 +16°C° 0 mm 2 mps 735 mmHg 18%
    23:00 +15°C° 0 mm 2 mps 734 mmHg 18%

    23 December, Saturday

    Time Temperature Precipitation Wind Pressure Humidity
    00:00 +15°C° 0 mm 2 mps 734 mmHg 18%
    01:00 +15°C° 0 mm 2 mps 734 mmHg 18%
    02:00 +14°C° 0 mm 2 mps 733 mmHg 18%
    03:00 +14°C° 0 mm 2 mps 733 mmHg 18%
    04:00 +14°C° 0 mm 2 mps 733 mmHg 18%
    05:00 +14°C° 0 mm 2 mps 732 mmHg 18%
    06:00 +14°C° 0 mm 2 mps 733 mmHg 18%
    07:00 +14°C° 0 mm 2 mps 733 mmHg 18%
    08:00 +14°C° 0 mm 2 mps 733 mmHg 18%
    09:00 +16°C° 0 mm 2 mps 733 mmHg 16%
    10:00 +18°C° 0 mm 2 mps 733 mmHg 14%
    11:00 +20°C° 0 mm 2 mps 733 mmHg 12%
    12:00 +20°C° 0 mm 2 mps 733 mmHg 12%
    13:00 +21°C° 0 mm 3 mps 732 mmHg 11%
    14:00 +22°C° 0 mm 3 mps 731 mmHg 11%
    15:00 +21°C° 0 mm 3 mps 731 mmHg 12%
    16:00 +19°C° 0 mm 3 mps 731 mmHg 14%
    17:00 +18°C° 0 mm 2 mps 731 mmHg 16%
    18:00 +17°C° 0 mm 2 mps 731 mmHg 16%
    19:00 +17°C° 0 mm 3 mps 732 mmHg 16%
    20:00 +16°C° 0 mm 3 mps 732 mmHg 16%
    21:00 +14°C° 0 mm 3 mps 732 mmHg 16%
    22:00 +14°C° 0 mm 3 mps 732 mmHg 17%
    23:00 +15°C° 0 mm 2 mps 732 mmHg 17%

    24 December, Sunday

    Time Temperature Precipitation Wind Pressure Humidity
    00:00 +13°C° 0 mm 3 mps 732 mmHg 17%
    01:00 +13°C° 0 mm 3 mps 732 mmHg 18%
    02:00 +13°C° 0 mm 3 mps 732 mmHg 18%
    03:00 +12°C° 0 mm 3 mps 732 mmHg 19%
    04:00 +12°C° 0 mm 3 mps 732 mmHg 19%
    05:00 +12°C° 0 mm 3 mps 732 mmHg 20%
    06:00 +12°C° 0 mm 3 mps 732 mmHg 21%
    07:00 +12°C° 0 mm 3 mps 732 mmHg 21%
    08:00 +13°C° 0 mm 2 mps 732 mmHg 22%
    09:00 +15°C° 0 mm 2 mps 732 mmHg 20%
    10:00 +17°C° 0 mm 2 mps 732 mmHg 17%
    11:00 +19°C° 0 mm 2 mps 732 mmHg 15%
    12:00 +20°C° 0 mm 2 mps 732 mmHg 14%
    13:00 +21°C° 0 mm 2 mps 731 mmHg 13%
    14:00 +23°C° 0 mm 2 mps 731 mmHg 12%
    15:00 +21°C° 0 mm 2 mps 731 mmHg 14%
    16:00 +19°C° 0 mm 2 mps 731 mmHg 16%
    17:00 +18°C° 0 mm 2 mps 731 mmHg 18%
    18:00 +17°C° 0 mm 2 mps 731 mmHg 18%
    19:00 +17°C° 0 mm 2 mps 732 mmHg 19%
    20:00 +16°C° 0 mm 2 mps 732 mmHg 19%
    21:00 +15°C° 0 mm 2 mps 732 mmHg 19%
    22:00 +15°C° 0 mm 2 mps 733 mmHg 19%
    23:00 +15°C° 0 mm 2 mps 733 mmHg 20%
    Show more